Torna al catalogo

STARLINK-4037

AttivoComunicazioniVLEO
NORAD 52663·PAYLOAD·🇺🇸 United States

Lanciato May 18, 2022 da Cape Canaveral Space Force Station

Loading…

Prossimi Passaggi (prossime 24 ore)

TLE

AggiornatoSource: CelesTrak SupGP

Epoca: Sep 14, 2026, 13:42 UTC

1 52663C 22053H   26257.57131944  .00562390  00000+0  16425-1 0  2570
2 52663  53.1603  23.5788 0001241  80.5919 129.2797 15.34473086    14

Traccia STARLINK-4037 in tempo reale con AllMySat

Download on the App Store